Weather in Kaskat

Russia / Omsk Oblast     54°47′54″N   71°07′49″E
temp.,
°C
wind,
m/s
gust,
m/s
humid.,
%
clouds,
%
prec.,
mm/h
press.,
hPa
HPBL,
m
18 april, sun
sun1800:00+5wsw336999 0.0 102027
03:00+3sw47715 0.0 101795
06:00+2wsw41073100 0.0 1016161
09:00+6wsw51163100 0.0 1013394
12:00+10w81453100 0.0 10111697
15:00+11wnw91443100 0.0 10092135
18:00+3nnw11145765 0.1 10141317
21:00−4n1015625 0.0 10211112
19 april, mon
mon1900:00−4n811525 0.0 10241176
03:00−6n785175 0.0 10261197
06:00−7n68475 0.0 10291031
09:00−7n67415 0.0 10301114
12:00−4n67335 0.0 10311478
15:00−2n673015 0.0 10311874
18:00−2n5730100 0.0 10312123
21:00−4nne364295 0.0 1032306
20 april, tue
tue2000:00−4nne25455 0.0 1032395
03:00−5n24475 0.0 1032639
06:00−5n24500 0.0 1033394
09:00−4nnw34415 0.0 10331165
12:00−1nw34320 0.0 10321392
15:00+2wnw56295 0.0 10301503
18:00+3wnw68324 0.0 10281514
21:000wsw49548 0.0 1027168
21 april, wed
wed2100:000wsw6145397 0.0 1025366
03:00+1w61361100 0.0 1023319
06:00+1nw5107281 0.0 1023393
09:00+2n610735 0.0 1025746
12:00+5n795038 0.0 10261451
15:00+6n784456 0.0 10281629
18:00+5nne784470 0.0 10301661
21:00+2ne69605 0.0 1033472
22 april, thu
thu2200:000nne38755 0.0 1035261
03:00−1nne35760 0.0 1037207
06:00−2ne35761 0.0 1039205
09:00+1ene45545 0.0 1041828
12:00+4ene34405 0.0 10421321
15:00+6e33330 0.0 10421436
18:00+6ese33325 0.0 10421453
21:00+4ese34475 0.0 104356